Regional Weather Roundup
Issued by NWS Charleston, SC

Current Version | Previous Version | Graphics & Text | Print | Product List | Glossary On
Versions: 1 2 3 4 5 6 7 8 9 10 11 12 13 14 15 16 17 18 19 20 21 22 23 24 25 26 27 28 29 30 31 32 33 34 35 36 37 38 39 40 41 42 43 44 45 46 47 48 49 50
000
ASUS42 KCHS 022227
RWRCHS

REGIONAL WEATHER ROUNDUP
NATIONAL WEATHER SERVICE CHARLESTON SC
600 PM EDT SUN AUG 02 2015

NOTE: "FAIR" INDICATES FEW OR NO CLOUDS BELOW 12,000 FEET WITH NO
SIGNIFICANT WEATHER AND/OR OBSTRUCTIONS TO VISIBILITY.

NOT ALL STATIONS ARE QUALITY CONTROLLED BY THE NATIONAL
WEATHER SERVICE. USE DATA WITH CAUTION...ESPECIALLY
DEWPOINT OBSERVATIONS.

SCZ027-030-031-034>040-042>050-022300-
...SOUTHEAST SOUTH CAROLINA...

CITY           SKY/WX    TMP DP  RH WIND       PRES   REMARKS
N CHARLESTON   PTSUNNY   80  73  79 SE13      29.92R
WATERFRONT PRK   N/A     79  76  91 S10       29.89S
MOUNT PLEASANT FAIR      81  75  83 S7        29.93S
JOHNS ISLAND   FAIR      81  75  83 S9        29.92S
PINOPOLIS      NOT AVBL
MONCKS CORNER  FAIR      84  72  65 SE5       29.93S
SUMMERVILLE    FAIR      82  73  74 CALM      29.93S
BEAUFORT MCAS  PTSUNNY   83  76  79 SE8       29.90F HX  91
BEAUFORT ARPT  DRIZZLE   79  77  94 SE5       29.91R
HILTON HEAD IS PTSUNNY   82  77  83 CALM      29.92S HX  91
WALTERBORO     CLEAR     86  73  66 SE7       29.92R HX  93
ALLENDALE      FAIR      88  72  58 SE8G15    29.88S HX  94

...SOUTHERN MIDLANDS AND PEE DEE...

CITY           SKY/WX    TMP DP  RH WIND       PRES   REMARKS
GEORGETOWN     NOT AVBL
KINGSTREE      NOT AVBL
ORANGEBURG     SUNNY     89  69  51 SE7       29.90S HX  93
BARNWELL       FAIR      88  72  58 SE13G20   29.90R HX  94
AIKEN          TSTM      79  64  61 N22G28    29.93R
MANNING        HVY RAIN  81  66  61 NE6       29.94S
COLUMBIA       PTSUNNY   92  66  42 SE13      29.88R HX  94
SUMTER         PTSUNNY   86  72  62 SE18      29.91R HX  91
FLORENCE       MOSUNNY   86  68  54 S10       29.92R
MYRTLE BEACH   MOSUNNY   82  72  69 S9        29.96R
N MYRTLE BEACH MOSUNNY   82  72  71 SE7       29.95R

$$

GAZ063-065-086>088-099>101-113>116-118-119-134>141-150-022300-
...SOUTHEAST GEORGIA...

CITY           SKY/WX    TMP DP  RH WIND       PRES   REMARKS
SAVANNAH ARPT  PTSUNNY   82  75  79 SE8       29.90S
HUNTER AAF     CLOUDY    82  78  88 SE8       29.88S HX  91
FORT STEWART   NOT AVBL
STATESBORO     FAIR      85  78  80 SE6       29.89S HX  96
SYLVANIA       PTCLDY    86  76  71 S6        29.90S HX  95
CLAXTON        NOT AVBL

...CSRA...CENTRAL AND FAR SOUTHEAST GEORGIA...

CITY           SKY/WX    TMP DP  RH WIND       PRES   REMARKS
THOMSON        MOSUNNY   83  76  78 NE9       29.92F HX  91
AUGUSTA-BUSH   PTSUNNY   89  69  51 SE10      29.87R HX  93
AUGUSTA-DANIEL LGT RAIN  77  71  82 N14G23    29.91S
SWAINSBORO     FAIR      91  73  55 SE9       29.88F HX 100
VIDALIA        PTSUNNY   79  77  94 SE6       29.88F
EASTMAN        MOCLDY    86  75  69 SE7       29.89S HX  95
HAZLEHURST     FAIR      83  78  84 E3        29.86S HX  92
ALMA           SUNNY     83  76  79 SE8       29.86F HX  91
WAYCROSS       CLOUDY    83  78  85 S6        29.87S HX  92
JESUP          CLOUDY    84  75  74 S8G17     29.89R HX  92
BAXLEY         LGT RAIN  79  77  94 E3        29.87S
BRUNSWICK      CLOUDY    77  73  88 CALM      29.90F
SAINT SIMONS   CLOUDY    76  73  91 SW8       29.90R

$$

SCZ027-028-034-036>038-045-046-048>050-GAZ119-141-022300-
...LAKE AND SUPPLEMENTAL COASTAL OBSERVATIONS...

STATION/POSITION TIME  TEMP    WIND        PRES    WAVE   SWELL
                       AIR SEA DIR/SP/G            HT/PER HT/PER/DIR
                 (UTC) (F)     (DEG/KT/KT) (MB)    (FT/S) (FT/S/D)
UPR LAKE MARION  NOT AVBL
WINYAH BAY       2100   82     160/  8     1012.0
LAKE MURRAY      2100   93      90/  7/ 12 1010.8S
ACE BASIN NERRS  2145   81     130/  3     1013.0S
FORT PULASKI     2200   82 86  150/  5/  9 1013.0F
SAPELO ISLAND    2200   77     210/ 11     1013.0R

$$

ANZ835-935-AMZ111-154-330-350-352-354-370-450-454-472-022300-
...C-MAN AND BUOY OBSERVATIONS...

STATION/POSITION TIME  TEMP    WIND        PRES    WAVE   SWELL
                       AIR SEA DIR/SP/G            HT/PER HT/PER/DIR
                 (UTC) (F)     (DEG/KT/KT) (MB)    (FT/S) (FT/S/D)
BUOY 41004       2150   76 83  250/  6/  8 1013.2F   3/ 6   3/ 6
BUOY 41008       2150   80 84  210/ 16/ 17 1012.8R   3/ 5   2/100/10
FOLLY BEACH CMAN 2200   79     160/ 14/ 15 1013.4R
CAPERS NEARSHORE 2108   79     160/ 16/ 19 1013.2F
FRIPP NEARSHORE  2100   78     140/  8/ 12 1013.2


STATION/POSITION TIME  TEMP    WIND        PRES    WAVE   SWELL
                       AIR SEA DIR/SP/G            HT/PER HT/PER/DIR
                 (UTC) (F)     (DEG/KT/KT) (MB)    (FT/S) (FT/S/D)
5E ST. MARYS GA  2121      83                N/A     4/ 5
FRYING PAN BUOY  2150   81 83  180/ 12/ 16 1014.4F   5/ 7   3/180/ 7
BUOY 41025       2150   83 85  210/ 17/ 19 1013.7F   4/ 8   2/190/ 8
CAPE LOOKOUT NC  2200   82     210/ 15/ 18 1013.7F
BUOY 41002       2150   78 81  180/  4/  6 1017.0F   6/ 7   5/250/ 7
BUOY 41010       2120   83 84  170/ 14/ 16 1015.0F
ST AUGUSTINE FL  2200   82 82  190/ 11/ 13 1012.9R


$$



USA.gov is the U.S. government's official web portal to all federal, state and local government web resources and services.